Total_Precipitation_Accumulation
0.25 0.29 0.38 0.52 0.45 0.31 0.18 0.07 0.04 0.06 0.07 0.06 0.06 0.06 0.08 0.12 0.19 0.32 0.31 0.27 0.24 0.31 0.51 0.77 0.94 0.99 1.04 0.93 0.75 0.63 0.63 0.70 0.78 0.84 0.85 0.92 0.89 0.81 0.80 0.80 0.91 1.01 1.15 1.10 1.01 0.86 0.67 0.59 0.49
0.25 0.38 0.59 0.68 0.46 0.26 0.12 0.07 0.06 0.07 0.08 0.09 0.08 0.09 0.11 0.16 0.18 0.22 0.32 0.38 0.34 0.39 0.60 0.76 0.99 1.02 1.04 0.96 0.81 0.71 0.67 0.72 0.80 0.85 0.91 0.98 0.96 0.90 0.94 0.92 0.93 0.98 1.02 0.97 0.85 0.80 0.61 0.47 0.40
0.33 0.53 0.81 0.71 0.43 0.25 0.12 0.07 0.07 0.07 0.08 0.11 0.14 0.16 0.21 0.27 0.23 0.29 0.37 0.47 0.53 0.57 0.73 0.94 1.09 1.08 1.08 1.01 0.93 0.86 0.81 0.83 0.88 0.92 1.01 1.04 1.06 1.03 1.09 1.01 0.93 0.90 0.82 0.75 0.70 0.64 0.54 0.42 0.39
0.51 0.83 0.94 0.70 0.37 0.17 0.12 0.09 0.08 0.10 0.10 0.12 0.19 0.29 0.35 0.32 0.29 0.36 0.45 0.52 0.66 0.76 0.91 1.15 1.33 1.28 1.21 1.11 1.05 1.03 0.98 0.95 0.96 0.98 1.07 1.13 1.17 1.16 1.13 0.98 0.85 0.76 0.72 0.71 0.69 0.59 0.49 0.40 0.37
0.79 1.07 0.94 0.61 0.31 0.15 0.10 0.10 0.11 0.13 0.13 0.14 0.22 0.38 0.51 0.45 0.43 0.53 0.58 0.64 0.78 0.88 1.07 1.34 1.54 1.54 1.39 1.27 1.21 1.21 1.20 1.18 1.14 1.10 1.16 1.22 1.24 1.22 1.13 0.92 0.74 0.63 0.64 0.67 0.69 0.68 0.56 0.47 0.39
1.13 1.12 0.89 0.55 0.26 0.16 0.11 0.12 0.14 0.16 0.17 0.20 0.28 0.45 0.64 0.67 0.72 0.82 0.85 0.84 0.97 1.04 1.23 1.51 1.72 1.65 1.55 1.52 1.46 1.46 1.46 1.40 1.33 1.29 1.38 1.37 1.31 1.21 1.09 0.94 0.79 0.67 0.61 0.64 0.66 0.70 0.64 0.52 0.46
1.18 0.99 0.70 0.43 0.26 0.20 0.15 0.13 0.17 0.19 0.22 0.26 0.29 0.55 0.78 0.98 1.10 1.18 1.24 1.25 1.26 1.34 1.52 1.70 1.79 1.69 1.59 1.55 1.55 1.58 1.63 1.64 1.52 1.42 1.43 1.40 1.30 1.18 1.07 0.89 0.85 0.78 0.70 0.66 0.63 0.62 0.67 0.59 0.50
1.18 1.13 0.69 0.41 0.31 0.24 0.20 0.20 0.18 0.22 0.27 0.30 0.38 0.64 0.88 1.10 1.38 1.64 1.68 1.84 1.81 1.83 1.89 1.96 2.04 1.94 1.75 1.58 1.63 1.63 1.63 1.61 1.60 1.48 1.29 1.21 1.11 1.03 1.01 0.80 0.78 0.77 0.73 0.65 0.61 0.59 0.63 0.57 0.45
1.27 1.31 0.76 0.41 0.34 0.29 0.27 0.30 0.25 0.22 0.32 0.43 0.47 0.62 0.92 1.27 1.69 2.17 2.24 2.35 2.39 2.33 2.35 2.27 2.30 2.23 2.14 1.95 1.80 1.81 1.69 1.60 1.57 1.47 1.24 1.15 1.19 1.07 0.86 0.65 0.64 0.67 0.68 0.66 0.63 0.58 0.55 0.46 0.38
1.39 1.15 0.60 0.33 0.32 0.35 0.35 0.39 0.37 0.35 0.41 0.52 0.66 0.72 1.13 1.65 2.05 2.34 2.46 2.39 2.56 2.52 2.56 2.51 2.49 2.45 2.44 2.16 1.98 1.99 1.82 1.63 1.50 1.36 1.31 1.22 1.19 1.15 0.89 0.75 0.64 0.67 0.65 0.65 0.71 0.70 0.58 0.43 0.36
1.12 0.76 0.50 0.40 0.38 0.42 0.46 0.47 0.48 0.51 0.52 0.55 0.64 0.77 1.17 1.76 2.29 2.44 2.66 2.64 2.68 2.85 2.83 2.73 2.68 2.67 2.67 2.52 2.15 2.03 1.86 1.77 1.66 1.45 1.40 1.35 1.34 1.28 1.12 0.99 0.87 0.81 0.68 0.67 0.72 0.75 0.59 0.47 0.42
0.92 0.61 0.56 0.55 0.49 0.55 0.57 0.56 0.54 0.56 0.56 0.54 0.65 0.77 1.13 1.60 2.09 2.48 2.69 2.82 2.68 2.92 3.03 2.92 2.83 2.78 2.77 2.72 2.46 2.17 1.95 1.76 1.66 1.50 1.40 1.45 1.43 1.32 1.19 1.03 0.96 0.89 0.76 0.70 0.69 0.66 0.57 0.48 0.43
0.82 0.63 0.62 0.64 0.63 0.68 0.71 0.65 0.62 0.58 0.56 0.62 0.86 1.07 1.24 1.51 1.84 2.37 2.74 2.84 2.77 2.78 3.08 3.13 3.04 2.90 2.76 2.76 2.66 2.35 2.06 1.78 1.70 1.68 1.54 1.40 1.36 1.27 1.24 1.10 1.06 0.97 0.84 0.78 0.74 0.68 0.64 0.58 0.52
0.69 0.64 0.70 0.76 0.78 0.78 0.88 0.76 0.73 0.69 0.66 0.84 1.05 1.18 1.39 1.61 1.83 2.26 2.62 2.83 2.73 2.64 2.93 3.15 3.29 3.19 2.96 2.72 2.60 2.47 2.26 2.06 1.97 1.86 1.72 1.61 1.50 1.41 1.28 1.18 1.13 1.06 0.91 0.80 0.79 0.74 0.70 0.64 0.60
0.79 0.85 0.88 0.89 0.86 0.84 0.97 0.98 0.76 0.74 0.82 0.92 1.04 1.22 1.41 1.66 2.00 2.31 2.48 2.71 2.89 2.76 2.88 3.09 3.33 3.49 3.33 3.05 2.83 2.68 2.49 2.31 2.16 2.06 2.04 1.93 1.73 1.57 1.49 1.29 1.16 1.12 1.10 1.06 1.00 0.95 0.81 0.70 0.64
1.25 1.21 1.09 0.90 0.84 0.84 1.12 1.13 0.77 0.72 0.86 0.93 1.05 1.24 1.39 1.58 1.91 2.24 2.49 2.72 3.05 3.11 3.12 3.26 3.28 3.48 3.57 3.44 3.17 2.88 2.70 2.51 2.28 2.07 2.05 2.06 1.93 1.79 1.70 1.56 1.36 1.28 1.30 1.28 1.17 1.05 0.97 0.80 0.68
1.40 1.17 0.88 0.79 0.79 0.89 1.05 1.01 0.86 0.79 0.81 0.92 1.05 1.20 1.41 1.50 1.70 1.99 2.33 2.70 3.05 3.23 3.37 3.54 3.50 3.38 3.52 3.66 3.55 3.17 2.90 2.69 2.50 2.24 2.10 2.12 2.11 1.99 1.82 1.64 1.54 1.54 1.49 1.39 1.31 1.15 1.13 1.05 0.86
0.91 0.73 0.62 0.64 0.67 0.76 0.87 0.84 0.88 0.92 0.87 0.85 0.97 1.11 1.33 1.38 1.46 1.68 2.05 2.56 3.01 3.28 3.37 3.49 3.60 3.64 3.69 3.81 3.91 3.67 3.30 2.98 2.76 2.56 2.35 2.25 2.30 2.32 2.15 1.84 1.69 1.70 1.69 1.61 1.51 1.42 1.31 1.22 1.17
0.71 0.65 0.56 0.46 0.49 0.68 0.76 0.81 0.92 1.00 0.89 0.85 0.96 1.05 1.18 1.24 1.33 1.50 1.79 2.21 2.66 3.14 3.25 3.26 3.35 3.52 3.64 3.75 3.75 3.63 3.31 3.13 2.97 2.72 2.57 2.49 2.38 2.39 2.46 2.23 2.02 1.94 1.88 1.85 1.81 1.79 1.71 1.50 1.42
0.80 0.76 0.64 0.55 0.55 0.75 0.79 0.87 0.88 0.94 0.95 0.89 0.90 0.96 1.01 1.14 1.31 1.45 1.68 1.97 2.23 2.70 3.05 3.10 3.17 3.23 3.27 3.32 3.52 3.63 3.51 3.23 3.10 3.00 2.80 2.60 2.50 2.43 2.47 2.54 2.38 2.12 2.06 2.06 2.05 1.97 1.84 1.76 1.69
0.84 0.66 0.63 0.74 0.79 0.89 0.92 1.02 0.92 0.91 0.92 0.84 0.82 0.88 0.88 1.01 1.25 1.39 1.54 1.86 2.06 2.41 2.83 2.98 3.09 3.21 3.14 3.28 3.70 3.92 3.92 3.60 3.28 3.08 2.98 2.83 2.63 2.57 2.47 2.41 2.45 2.37 2.24 2.16 2.19 2.25 2.22 2.08 1.96
0.90 0.53 0.59 0.81 1.15 1.27 1.02 1.27 1.03 0.96 0.89 0.84 0.81 0.87 0.88 0.94 1.14 1.25 1.34 1.67 1.92 2.13 2.47 2.70 2.98 3.23 3.32 3.37 3.56 3.60 3.40 3.21 2.91 2.82 2.81 2.84 2.81 2.63 2.54 2.51 2.48 2.45 2.38 2.26 2.27 2.36 2.41 2.42 2.31
0.80 0.59 0.70 0.91 1.24 1.34 0.91 1.13 1.03 0.93 0.94 0.92 0.89 0.96 0.99 0.96 1.08 1.26 1.34 1.48 1.64 1.95 2.24 2.41 2.59 2.87 3.13 3.25 3.39 3.51 3.32 3.04 2.90 2.87 2.83 2.78 2.79 2.72 2.60 2.53 2.54 2.54 2.47 2.41 2.39 2.41 2.45 2.47 2.44
0.84 1.02 1.09 1.15 1.64 1.73 0.89 0.95 1.00 0.98 0.96 0.89 0.87 0.94 0.96 0.98 1.09 1.21 1.28 1.39 1.49 1.73 2.06 2.23 2.37 2.53 2.81 3.02 3.20 3.38 3.26 2.99 2.71 2.66 2.69 2.63 2.62 2.56 2.48 2.50 2.46 2.46 2.43 2.33 2.31 2.35 2.38 2.40 2.34
1.28 1.81 2.25 2.20 2.10 1.39 0.69 0.87 1.08 0.92 0.84 0.87 0.92 0.91 0.93 0.94 1.01 1.13 1.22 1.39 1.48 1.63 1.79 1.91 1.99 2.10 2.35 2.62 2.79 2.99 3.08 3.02 2.77 2.50 2.45 2.41 2.35 2.29 2.23 2.27 2.31 2.34 2.32 2.31 2.27 2.24 2.17 2.23 2.28
1.27 1.51 1.82 1.63 1.14 0.79 0.69 0.92 1.01 0.82 0.82 0.84 0.88 0.89 0.87 0.91 0.98 1.03 1.11 1.27 1.43 1.56 1.59 1.62 1.68 1.78 1.90 2.05 2.24 2.40 2.49 2.66 2.69 2.54 2.35 2.26 2.15 2.09 2.09 2.13 2.18 2.24 2.30 2.29 2.30 2.24 2.13 2.08 2.07
1.21 1.25 1.07 1.35 0.95 0.83 0.83 0.85 0.86 0.72 0.76 0.78 0.78 0.83 0.87 0.90 0.90 0.98 1.10 1.20 1.29 1.41 1.46 1.46 1.52 1.57 1.60 1.74 1.87 2.08 2.10 2.13 2.24 2.27 2.27 2.23 2.08 1.98 2.01 2.11 2.13 2.09 2.09 2.09 2.14 2.15 2.04 1.95 1.90
1.02 1.06 1.28 1.78 1.52 1.10 0.79 0.77 0.99 0.83 0.82 0.85 0.81 0.84 0.89 0.89 0.89 1.00 1.14 1.23 1.27 1.36 1.41 1.37 1.40 1.44 1.48 1.54 1.68 1.83 1.91 1.96 1.99 1.98 1.98 2.01 1.98 1.85 1.82 1.88 1.96 1.98 1.97 1.99 2.01 1.95 1.86 1.81 1.70
0.97 1.15 1.35 1.42 1.23 1.19 0.94 0.96 0.98 0.84 0.78 0.81 0.78 0.80 0.84 0.84 0.89 1.02 1.14 1.27 1.30 1.31 1.34 1.35 1.29 1.29 1.36 1.41 1.47 1.57 1.65 1.74 1.84 1.81 1.76 1.76 1.78 1.73 1.67 1.70 1.71 1.69 1.69 1.74 1.82 1.80 1.76 1.75 1.69
0.80 0.90 1.13 1.54 1.17 0.92 0.97 1.03 0.85 0.73 0.69 0.72 0.74 0.74 0.75 0.77 0.84 0.96 1.04 1.08 1.15 1.23 1.33 1.38 1.30 1.28 1.24 1.32 1.40 1.42 1.47 1.52 1.62 1.65 1.65 1.61 1.61 1.63 1.60 1.61 1.65 1.60 1.55 1.54 1.58 1.59 1.60 1.65 1.66